When you browse on this site, cookies collect data to enhance your experience and personalize the content and advertising you see.
Visit our Privacy Policy to learn more. By continuing to use the site, you agree to this use of cookies and data.
  • en Suisse
  • Liste des pays
  • À 7 jours
  • Température de l'eau
  • Carte satellitaire
  • Carte météo
  • Widgets météo
  • user-avatar
    Se connecter

    Météo par heure à Kusty

    Ce jour, 27 Juin, Jeudi

    Heure Température Précipitation Vent Pression Humidité
    00:00 +17°C° 0 mm 3 m/s 743 mmHg 86%
    01:00 +16°C° 0.2 mm 2 m/s 742 mmHg 88%
    02:00 +16°C° 0.2 mm 2 m/s 742 mmHg 91%
    03:00 +16°C° 0 mm 2 m/s 742 mmHg 92%
    04:00 +16°C° 0.3 mm 2 m/s 741 mmHg 93%
    05:00 +16°C° 0.3 mm 2 m/s 741 mmHg 95%
    06:00 +14°C° 0.3 mm 3 m/s 740 mmHg 96%
    07:00 +16°C° 0.1 mm 3 m/s 740 mmHg 94%
    08:00 +17°C° 0.1 mm 3 m/s 740 mmHg 91%
    09:00 +18°C° 0.1 mm 3 m/s 739 mmHg 88%
    10:00 +18°C° 0.6 mm 3 m/s 738 mmHg 91%
    11:00 +18°C° 0.6 mm 3 m/s 738 mmHg 93%
    12:00 +18°C° 0.6 mm 3 m/s 737 mmHg 95%
    13:00 +18°C° 2.8 mm 3 m/s 736 mmHg 95%
    14:00 +18°C° 2.8 mm 3 m/s 735 mmHg 96%
    15:00 +19°C° 2.8 mm 4 m/s 734 mmHg 96%
    16:00 +19°C° 3.2 mm 4 m/s 733 mmHg 96%
    17:00 +19°C° 3.2 mm 4 m/s 732 mmHg 97%
    18:00 +19°C° 3.2 mm 4 m/s 731 mmHg 97%
    19:00 +19°C° 1.6 mm 4 m/s 731 mmHg 96%
    20:00 +19°C° 1.6 mm 4 m/s 730 mmHg 96%
    21:00 +19°C° 1.6 mm 3 m/s 729 mmHg 95%
    22:00 +19°C° 0.8 mm 4 m/s 728 mmHg 96%
    23:00 +19°C° 0.8 mm 5 m/s 727 mmHg 96%

    Demain, 28 Juin, Vendredi

    Heure Température Précipitation Vent Pression Humidité
    00:00 +19°C° 0.8 mm 5 m/s 727 mmHg 96%
    01:00 +17°C° 0 mm 5 m/s 726 mmHg 96%
    02:00 +17°C° 0 mm 5 m/s 726 mmHg 96%
    03:00 +17°C° 0 mm 5 m/s 726 mmHg 96%
    04:00 +16°C° 0.1 mm 5 m/s 726 mmHg 95%
    05:00 +16°C° 0.1 mm 6 m/s 726 mmHg 93%
    06:00 +15°C° 0.1 mm 6 m/s 726 mmHg 92%
    07:00 +15°C° 0 mm 6 m/s 726 mmHg 91%
    08:00 +15°C° 0 mm 6 m/s 726 mmHg 90%
    09:00 +15°C° 0 mm 6 m/s 726 mmHg 89%
    10:00 +15°C° 0.1 mm 6 m/s 726 mmHg 87%
    11:00 +15°C° 0.1 mm 6 m/s 726 mmHg 86%
    12:00 +15°C° 0.1 mm 6 m/s 726 mmHg 85%
    13:00 +15°C° 0.2 mm 6 m/s 726 mmHg 84%
    14:00 +15°C° 0.2 mm 6 m/s 726 mmHg 83%
    15:00 +16°C° 0.2 mm 7 m/s 726 mmHg 82%
    16:00 +15°C° 0.1 mm 6 m/s 725 mmHg 82%
    17:00 +15°C° 0.1 mm 6 m/s 725 mmHg 82%
    18:00 +15°C° 0.1 mm 6 m/s 725 mmHg 83%
    19:00 +14°C° 0 mm 6 m/s 725 mmHg 84%
    20:00 +13°C° 0 mm 5 m/s 725 mmHg 85%
    21:00 +12°C° 0 mm 4 m/s 725 mmHg 87%
    22:00 +12°C° 0.2 mm 4 m/s 725 mmHg 89%
    23:00 +11°C° 0.2 mm 3 m/s 725 mmHg 92%

    Après-demain, 29 Juin, Samedi

    Heure Température Précipitation Vent Pression Humidité
    00:00 +11°C° 0.2 mm 3 m/s 725 mmHg 94%
    01:00 +11°C° 0.3 mm 4 m/s 725 mmHg 94%
    02:00 +9°C° 0.3 mm 5 m/s 725 mmHg 95%
    03:00 +9°C° 0.3 mm 6 m/s 725 mmHg 95%
    04:00 +9°C° 0.2 mm 6 m/s 725 mmHg 95%
    05:00 +9°C° 0.2 mm 5 m/s 725 mmHg 95%
    06:00 +9°C° 0.2 mm 5 m/s 725 mmHg 95%
    07:00 +10°C° 0.2 mm 5 m/s 726 mmHg 94%
    08:00 +10°C° 0.2 mm 5 m/s 726 mmHg 94%
    09:00 +10°C° 0.2 mm 6 m/s 727 mmHg 93%
    10:00 +10°C° 0.3 mm 6 m/s 727 mmHg 93%
    11:00 +10°C° 0.3 mm 6 m/s 728 mmHg 93%
    12:00 +10°C° 0.3 mm 7 m/s 728 mmHg 93%
    13:00 +10°C° 0.2 mm 7 m/s 729 mmHg 93%
    14:00 +9°C° 0.2 mm 7 m/s 730 mmHg 93%
    15:00 +9°C° 0.2 mm 7 m/s 731 mmHg 93%
    16:00 +9°C° 0.1 mm 6 m/s 731 mmHg 93%
    17:00 +8°C° 0.1 mm 6 m/s 732 mmHg 93%
    18:00 +8°C° 0.1 mm 6 m/s 732 mmHg 93%
    19:00 +8°C° 0 mm 5 m/s 733 mmHg 93%
    20:00 +8°C° 0 mm 5 m/s 733 mmHg 92%
    21:00 +8°C° 0 mm 4 m/s 734 mmHg 92%
    22:00 +8°C° 0 mm 4 m/s 734 mmHg 92%
    23:00 +8°C° 0 mm 4 m/s 734 mmHg 92%

    30 Juin, Dimanche

    Heure Température Précipitation Vent Pression Humidité
    00:00 +8°C° 0 mm 4 m/s 734 mmHg 92%
    01:00 +8°C° 0 mm 4 m/s 734 mmHg 91%
    02:00 +8°C° 0 mm 4 m/s 735 mmHg 89%
    03:00 +8°C° 0 mm 4 m/s 735 mmHg 88%
    04:00 +8°C° 0 mm 4 m/s 735 mmHg 88%
    05:00 +8°C° 0 mm 4 m/s 735 mmHg 87%
    06:00 +10°C° 0 mm 4 m/s 736 mmHg 87%
    07:00 +11°C° 0 mm 4 m/s 736 mmHg 84%
    08:00 +11°C° 0 mm 4 m/s 736 mmHg 81%
    09:00 +12°C° 0 mm 4 m/s 736 mmHg 78%
    10:00 +14°C° 0 mm 5 m/s 737 mmHg 72%
    11:00 +15°C° 0 mm 5 m/s 737 mmHg 67%
    12:00 +17°C° 0 mm 5 m/s 737 mmHg 62%
    13:00 +17°C° 0 mm 5 m/s 737 mmHg 61%
    14:00 +19°C° 0 mm 5 m/s 737 mmHg 59%
    15:00 +19°C° 0 mm 5 m/s 737 mmHg 58%
    16:00 +19°C° 0.1 mm 4 m/s 737 mmHg 62%
    17:00 +19°C° 0.1 mm 4 m/s 737 mmHg 66%
    18:00 +19°C° 0.1 mm 3 m/s 737 mmHg 69%
    19:00 +17°C° 0.2 mm 3 m/s 737 mmHg 76%
    20:00 +16°C° 0.2 mm 3 m/s 738 mmHg 82%
    21:00 +13°C° 0.2 mm 3 m/s 738 mmHg 89%
    22:00 +13°C° 0 mm 3 m/s 738 mmHg 90%
    23:00 +12°C° 0 mm 3 m/s 738 mmHg 91%

    1 Juillet, Lundi

    Heure Température Précipitation Vent Pression Humidité
    00:00 +11°C° 0 mm 3 m/s 738 mmHg 92%
    01:00 +11°C° 0 mm 3 m/s 739 mmHg 92%
    02:00 +11°C° 0 mm 3 m/s 739 mmHg 92%
    03:00 +10°C° 0 mm 3 m/s 739 mmHg 91%
    04:00 +11°C° 0 mm 3 m/s 739 mmHg 89%
    05:00 +12°C° 0 mm 2 m/s 739 mmHg 87%
    06:00 +12°C° 0 mm 2 m/s 740 mmHg 85%
    07:00 +14°C° 0 mm 2 m/s 740 mmHg 79%
    08:00 +16°C° 0 mm 2 m/s 740 mmHg 74%
    09:00 +18°C° 0 mm 1 m/s 740 mmHg 69%
    10:00 +19°C° 0 mm 2 m/s 740 mmHg 66%
    11:00 +20°C° 0 mm 2 m/s 740 mmHg 63%
    12:00 +21°C° 0 mm 2 m/s 740 mmHg 60%
    13:00 +21°C° 0 mm 2 m/s 739 mmHg 61%
    14:00 +23°C° 0 mm 2 m/s 739 mmHg 63%
    15:00 +22°C° 0 mm 3 m/s 739 mmHg 65%
    16:00 +22°C° 0 mm 3 m/s 738 mmHg 69%
    17:00 +22°C° 0 mm 3 m/s 738 mmHg 72%
    18:00 +22°C° 0 mm 3 m/s 738 mmHg 76%
    19:00 +21°C° 0 mm 3 m/s 738 mmHg 82%
    20:00 +20°C° 0 mm 3 m/s 738 mmHg 87%
    21:00 +18°C° 0 mm 3 m/s 737 mmHg 93%
    22:00 +18°C° 0 mm 3 m/s 737 mmHg 94%
    23:00 +18°C° 0 mm 3 m/s 737 mmHg 95%

    2 Juillet, Mardi

    Heure Température Précipitation Vent Pression Humidité
    00:00 +17°C° 0 mm 3 m/s 737 mmHg 96%
    01:00 +17°C° 0.4 mm 3 m/s 736 mmHg 96%
    02:00 +17°C° 0.4 mm 3 m/s 736 mmHg 97%
    03:00 +17°C° 0.4 mm 3 m/s 736 mmHg 97%
    04:00 +17°C° 0.9 mm 3 m/s 735 mmHg 97%
    05:00 +18°C° 0.9 mm 3 m/s 735 mmHg 97%
    06:00 +18°C° 0.9 mm 3 m/s 735 mmHg 97%
    07:00 +20°C° 0.3 mm 3 m/s 735 mmHg 93%
    08:00 +21°C° 0.3 mm 3 m/s 735 mmHg 90%
    09:00 +22°C° 0.3 mm 3 m/s 735 mmHg 87%
    10:00 +23°C° 0.3 mm 4 m/s 735 mmHg 81%
    11:00 +25°C° 0.3 mm 5 m/s 735 mmHg 74%
    12:00 +26°C° 0.3 mm 6 m/s 735 mmHg 68%
    13:00 +24°C° 0 mm 7 m/s 735 mmHg 67%
    14:00 +24°C° 0 mm 7 m/s 735 mmHg 66%
    15:00 +24°C° 0 mm 7 m/s 735 mmHg 65%
    16:00 +23°C° 0 mm 6 m/s 735 mmHg 67%
    17:00 +23°C° 0 mm 6 m/s 735 mmHg 69%
    18:00 +22°C° 0 mm 5 m/s 735 mmHg 72%
    19:00 +21°C° 0 mm 4 m/s 735 mmHg 74%
    20:00 +20°C° 0 mm 4 m/s 736 mmHg 77%
    21:00 +18°C° 0 mm 4 m/s 736 mmHg 80%
    22:00 +17°C° 0 mm 4 m/s 736 mmHg 83%
    23:00 +17°C° 0 mm 3 m/s 736 mmHg 85%
    Voir plus